Liberia, Costa Rica

12:29 AM CST on September 26, 2017 (GMT -0600)
Liberia

Weather History for 78774 - January, 2014

Change the Weather History Date:

Friday, January 31, 2014

  Actual Average Record
Temperature  
Mean Temperature 83 °F -  
Max Temperature 91 °F 90 °F - ()
Min Temperature 75 °F 74 °F - ()
Cooling Degree Days 18    
Growing Degree Days 33 (Base 50)    
Moisture  
Dew Point 61 °F    
Average Humidity 44    
Maximum Humidity 65    
Minimum Humidity 28    
Precipitation  
Precipitation 0.00 in - - ()
Sea Level Pressure  
Sea Level Pressure 29.80 in    
Wind  
Wind Speed 14 mph ()    
Max Wind Speed 25 mph    
Max Gust Speed 34 mph    
Visibility 9.1 miles    
Events      
T = Trace of Precipitation, MM = Missing Value Source: Averaged Metar Reports

Daily Weather History Graph

Daily Weather History Graph

Search for Another Location

Airport or City:

Trip Planner

Search our weather history database for the weather conditions in past years. The results will help you decide how hot, cold, wet, or windy it might be!

Date:

Astronomy

Jan. 31, 2014 Rise Set
Actual Time 6:05 AM CST 5:45 PM CST
Civil Twilight 5:43 AM CST 6:07 PM CST
Nautical Twilight 5:17 AM CST 6:32 PM CST
Astronomical Twilight 4:52 AM CST 6:58 PM CST
Moon 6:32 AM CST (1/31) 6:45 PM CST (1/31)
Length of Visible Light 12h 24m
Length of Day
11h 40m
New Moon, 1% of the Moon is Illuminated
Jan 31
New Moon
Feb 6
First Quarter
Feb 14
Full
Feb 22
Last Quarter
Mar 1
New

Hourly Weather History & Observations

Time (CST) Temp. Heat Index Dew Point Humidity Pressure Visibility Wind Dir Wind Speed Gust Speed Precip Events Conditions
6:00 AM 76 °F - 64 °F 58% 29.83 in 12 mi East 10.4 mph - -  
6:00 AM 77.0 °F - 64.4 °F 65% 29.80 in - East 10.4 mph - N/A   Clear
7:00 AM 78.8 °F - 62.6 °F 57% 29.82 in - East 13.8 mph - N/A   Clear
8:00 AM 80.6 °F 82.3 °F 64.4 °F 58% 29.85 in - NE 6.9 mph - N/A   Clear
9:00 AM 86 °F - 62 °F 35% 29.89 in 12 mi East 13.8 mph - -  
9:00 AM 86.0 °F 86.6 °F 62.6 °F 45% 29.86 in - East 13.8 mph - N/A   Clear
10:00 AM 86.0 °F 86.6 °F 62.6 °F 45% 29.85 in 6.2 mi East 23.0 mph - N/A   Partly Cloudy
11:00 AM 87.8 °F 87.1 °F 59.0 °F 38% 29.83 in 6.2 mi ENE 23.0 mph 34.5 mph N/A   Partly Cloudy
12:00 PM 91.4 °F 90.7 °F 59.0 °F 34% 29.80 in 6.2 mi East 20.7 mph - N/A   Partly Cloudy
1:00 PM 89.6 °F 88.9 °F 59.0 °F 36% 29.77 in 6.2 mi East 25.3 mph - N/A   Partly Cloudy
2:00 PM 91.4 °F 91.4 °F 60.8 °F 36% 29.74 in - East 20.7 mph - N/A   Clear
3:00 PM 90 °F - 61 °F 28% 29.76 in 12 mi ENE 25.3 mph - -  
3:00 PM 89.6 °F 89.5 °F 60.8 °F 38% 29.73 in - ENE 25.3 mph - N/A   Clear
4:00 PM 87.8 °F 87.6 °F 60.8 °F 40% 29.74 in - ENE 20.7 mph - N/A   Clear
5:00 PM 86.0 °F 84.5 °F 55.4 °F 35% 29.75 in - ENE 20.7 mph - N/A   Clear
6:00 PM 83 °F - - % 29.79 in 12 mi ENE 17.3 mph - -  
6:00 PM 82.4 °F 82.0 °F 57.2 °F 42% 29.76 in - ENE 17.3 mph - N/A   Clear
7:00 PM 78.8 °F - 57.2 °F 47% 29.78 in - East 11.5 mph - N/A   Clear
8:00 PM 78.8 °F - 59.0 °F 51% 29.80 in - East 17.3 mph - N/A   Clear